Regional Weather Roundup
Issued by NWS

Home | Current Version | Previous Version | Graphics & Text | Print | Product List | Glossary On
Versions: 1 2 3 4 5 6 7 8 9 10 11 12 13 14 15 16 17 18 19 20 21 22 23 24 25 26 27 28 29 30 31 32 33 34 35 36 37 38 39 40 41 42 43 44 45 46 47 48
000
ASUS43 KDMX 202307
RWRIA

WEATHER ROUNDUP FOR IOWA
NATIONAL WEATHER SERVICE DES MOINES IA
600 PM CDT SAT SEP 20 2014

NOTE: "FAIR" INDICATES FEW OR NO CLOUDS BELOW 12,000 FEET WITH NO
SIGNIFICANT WEATHER AND/OR OBSTRUCTIONS TO VISIBILITY.

* - THESE STATIONS ARE NOT NWS STATIONS...THUS NOT UNDER NWS
QUALITY CONTROL.  THEY ALSO DO NOT REPORT WEATHER SUCH
AS PRECIPITATION OR FOG.

IAZ001>003-012>014-020>022-031>034-043>046-210000-
   NORTHWEST IOWA

CITY           SKY/WX    TMP DP  RH WIND       PRES   REMARKS
CARROLL *      SUNNY     81  57  44 W13       29.88S HX  81
CHEROKEE *     MOSUNNY   79  57  47 W14G21    29.87S HX  80
DENISON *      SUNNY     79  55  44 W10       29.89S
LE MARS *      SUNNY     81  55  41 NW9G15    29.89R HX  80
ORANGE CITY *  SUNNY     82  46  28 W22G31    29.87S HX  81
SHELDON *      SUNNY     79  54  41 W18G25    29.85R
SIOUX CITY     SUNNY     83  56  39 W10       29.89R HX  82
SPENCER        PTSUNNY   79  54  41 W23G29    29.83F
STORM LAKE *   SUNNY     79  59  50 W14G20    29.88S HX  80
$$

IAZ055>058-069>071-079>083-090>094-210000-
   SOUTHWEST IOWA

CITY           SKY/WX    TMP DP  RH WIND       PRES   REMARKS
ATLANTIC *     SUNNY     81  57  44 NW10      29.90R HX  81
AUDUBON *      SUNNY     81  52  36 W6        29.92R HX  80
CLARINDA *     SUNNY     84  64  51 NW8G15    29.92S HX  86
COUNCIL BLFS * SUNNY     82  61  47 NW6       29.92R HX  83
CRESTON *      SUNNY     81  66  61 W12G18    29.91R HX  83
HARLAN  *      SUNNY     81  57  44 NW10G16   29.95R HX  81
LAMONI         SUNNY     80  68  66 W9        29.90S HX  83
RED OAK *      SUNNY     82  61  47 NW7       29.92R HX  83
SHENANDOAH *   SUNNY     84  63  48 NW10      29.92R HX  85
$$

IAZ047>049-059>061-072>074-084-210000-
   CENTRAL IOWA

CITY           SKY/WX    TMP DP  RH WIND       PRES   REMARKS
AMES           SUNNY     80  57  45 W12       29.84S HX  80
ANKENY *       SUNNY     81  59  47 W10       29.84S HX  81
CHARITON *     MOSUNNY   79  70  73 W7        29.88S HX  81
DES MOINES     MOSUNNY   82  59  45 W9        29.85S HX  82
GRINNELL*      SUNNY     79  61  53 W6        29.84S HX  80
KNOXVILLE *    SUNNY     81  64  57 W9        29.84S HX  82
MARSHALLTOWN   SUNNY     80  57  45 W13G21    29.82S HX  80
PELLA *        SUNNY     79  66  65 W5        29.86S HX  81
PERRY *          N/A     82  55  39 W13G20    29.87R HX  82
$$

IAZ004>006-015-016-023>025-035-036-210000-
   NORTH CENTRAL IOWA

CITY           SKY/WX    TMP DP  RH WIND       PRES   REMARKS
ALGONA *       SUNNY     81  55  41 W16G26    29.81F HX  80
CLARION *        N/A     81  55  41 W10G24    29.82S HX  80
ESTHERVILLE    MOSUNNY   79  54  41 W15G25    29.80F
FORT DODGE *   SUNNY     79  57  47 W16G23    29.85R HX  80
MASON CITY     MOSUNNY   77  54  44 W12       29.80F
FOREST CITY *  MOSUNNY   79  54  41 W10       29.79F
IOWA FALLS *     N/A     81  54  39 W13       29.84S HX  80
$$

IAZ007>011-017>019-026>030-037>042-050>054-066-210000-
   NORTHEAST IOWA

CITY           SKY/WX    TMP DP  RH WIND       PRES   REMARKS
CEDAR RAPIDS   SUNNY     78  65  63 W10       29.80S HX  80
CHARLES CITY * SUNNY     77  57  50 W7        29.79F
CLINTON *      SUNNY     75  64  69 W9        29.83S
DECORAH *      SUNNY     75  57  53 W5G13     29.78S
DUBUQUE        SUNNY     77  61  57 W10       29.79F
MONTICELLO *   SUNNY     77  66  69 SW9       29.79S
OELWEIN *      SUNNY     79  57  47 W9G16     29.80S HX  80
WATERLOO       SUNNY     80  56  43 W13       29.79S HX  80
$$

IAZ064-065-067-068-078-210000-
   EAST CENTRAL IOWA

CITY           SKY/WX    TMP DP  RH WIND       PRES   REMARKS
DAVENPORT      MOSUNNY   76  63  64 SW8       29.82F
IOWA CITY      SUNNY     79  67  66 W13       29.82F HX  81
MT. PLEASANT * MOSUNNY   81  64  57 SW7       29.85S HX  82
MUSCATINE *    MOSUNNY   81  68  65 SW12      29.82S HX  83
QUAD CITIES    PTSUNNY   77  67  71 W7        29.81F
$$

IAZ062-063-075>077-085>089-095>099-210000-
   SOUTHEAST IOWA

CITY           SKY/WX    TMP DP  RH WIND       PRES   REMARKS
BURLINGTON     LGT RAIN  78  68  71 SW9       29.84S HX  80
FAIRFIELD *    PTSUNNY   81  66  61 W12       29.85S HX  83
FORT MADISON * PTSUNNY   81  66  61 SW13G20   29.85F HX  83
KEOKUK *       PTSUNNY   79  70  73 SW14      29.85F HX  81
OSKALOOSA *      N/A     79  68  69 W14       29.85S HX  81
CENTERVILLE *  MOSUNNY   77  70  78 SW9       29.90S
OTTUMWA        SUNNY     79  66  64 W12       29.85S HX  81
WASHINGTON *   SUNNY     81  68  65 SW12G18   29.83F HX  83
$$

ABBREVIATIONS USED IN REMARKS
   TC - TEMPERATURES IN CELSIUS
  WCI - WIND CHILL INDEX
   HX - HEAT INDEX
  VSB - VISIBILITY
$$



USA.gov is the U.S. government's official web portal to all federal, state and local government web resources and services.